Tracking 19245 objects as of 18-Aug-2018
HD Live streaming from Space Station
objects crossing your sky now

BREEZE-M DEB (TANK)

Track BREEZE-M DEB (TANK) now!
10-day predictions


NORAD ID: 37828
Int'l Code: 2011-054C
Perigee: 302.7 km
Apogee: 17,254.9 km
Inclination: 49.4 °
Period: 309.3 minutes
Semi major axis: 15149 km
RCS: 6.7148 m2 (large)
Launch date: September 29, 2011
Source: Commonwealth of Independent States (former USSR) (CIS)
Launch site: TYURATAM MISSILE AND SPACE COMPLEX (TTMTR)

Note: This is SATELLITE DEBRIS
aabbcc
Your satellite tracking list
Your tracking list is empty




NASA's NSSDC Master Catalog

Two Line Element Set (TLE):
1 37828U 11054C   18229.07707395  .00000534  00000-0  11852-3 0  9991
2 37828  49.4330  92.2379 5594855 320.1685   9.9301  4.65578042113638
Source of the keplerian elements: AFSPC